Stations météo

réclame
Mon MeteoGroup
Sevilla/San Pablo, Espagne (8391): Température de l'air & dewpoint: 14.09.2020 19:00:00 - 20.09.2020 19:00:00 (CEST)Sevilla/San Pablo, Espagne (8391): Vitesse du vent: 14.09.2020 19:00:00 - 20.09.2020 19:00:00 (CEST)Sevilla/San Pablo, Espagne (8391): Direction du vent: 14.09.2020 19:00:00 - 20.09.2020 19:00:00 (CEST)Sevilla/San Pablo, Espagne (8391): reduced air pressure: 14.09.2020 19:00:00 - 20.09.2020 19:00:00 (CEST)Sevilla/San Pablo, Espagne (8391): visibility: 14.09.2020 19:00:00 - 20.09.2020 19:00:00 (CEST)
Date & Time tt [°C] td [°C] ff [km/h] ff [knt] dd ppp [hPa] vv [km]
20.09.2020 19:00:00 27,8 13,1 11 6 WSW 1017,2 -
20.09.2020 18:00:00 27,8 13,7 13 7 W 1017,2 -
20.09.2020 17:00:00 27,7 14,1 13 7 W 1017,6 30
20.09.2020 16:00:00 27,0 15,1 13 7 WNW 1018,3 -
20.09.2020 15:00:00 26,1 15,3 9 5 W 1019,1 -
20.09.2020 14:00:00 25,4 16,1 8 4 WSW 1019,8 30
20.09.2020 13:00:00 24,3 16,8 2 1 WNW 1020,3 -
20.09.2020 12:00:00 21,7 17,1 8 4 NE 1020,4 -
20.09.2020 11:00:00 - - - - - - -
20.09.2020 10:00:00 18,9 18,9 8 4 NE 1020,1 -
20.09.2020 09:00:00 18,1 18,1 4 2 NE 1020,1 -
20.09.2020 08:00:00 17,9 17,9 4 2 ESE 1019,6 5
20.09.2020 07:00:00 17,2 17,2 8 4 E 1019,3 -
20.09.2020 06:00:00 17,5 17,5 4 2 ESE 1019,0 -
20.09.2020 05:00:00 18,2 18,2 0 0 N 1018,9 30
20.09.2020 04:00:00 18,7 18,7 2 1 E 1019,5 -
20.09.2020 03:00:00 19,0 18,8 8 4 SSW 1019,7 -
20.09.2020 02:00:00 19,3 19,0 8 4 S 1019,9 30
20.09.2020 01:00:00 19,4 17,9 11 6 S 1019,9 -
20.09.2020 00:00:00 20,2 17,6 11 6 SSW 1019,8 -
19.09.2020 23:00:00 21,0 17,0 13 7 SSW 1019,5 30
19.09.2020 22:00:00 21,8 16,7 15 8 SSW 1018,9 -
19.09.2020 21:00:00 22,8 16,7 13 7 SW 1018,0 -
19.09.2020 20:00:00 24,3 16,0 21 11 SW 1017,4 30
19.09.2020 19:00:00 25,7 16,2 21 11 SW 1017,0 -
19.09.2020 18:00:00 26,5 16,5 18 10 SSW 1016,8 -
19.09.2020 17:00:00 25,6 17,6 15 8 SSW 1017,0 30
19.09.2020 16:00:00 25,4 17,4 13 7 SSW 1017,5 -
19.09.2020 15:00:00 24,9 18,4 9 5 SSW 1018,0 -
19.09.2020 14:00:00 23,6 18,7 9 5 S 1018,9 30
19.09.2020 13:00:00 22,2 18,3 4 2 E 1019,3 -
19.09.2020 12:00:00 20,4 18,2 0 0 N 1019,3 -
19.09.2020 11:00:00 19,5 19,3 4 2 SW 1019,0 10
19.09.2020 10:00:00 19,5 19,4 4 2 W 1018,4 -
19.09.2020 09:00:00 19,0 19,0 11 6 S 1017,9 -
19.09.2020 08:00:00 18,9 18,9 9 5 S 1017,1 15
19.09.2020 07:00:00 19,4 19,4 9 5 S 1016,8 -
19.09.2020 06:00:00 19,6 19,3 9 5 S 1016,7 -
19.09.2020 05:00:00 19,8 19,3 8 4 S 1016,5 30
19.09.2020 04:00:00 19,4 18,7 5 3 S 1016,7 -
19.09.2020 03:00:00 19,5 18,0 18 10 SW 1016,7 -
19.09.2020 02:00:00 20,2 18,0 16 9 SW 1016,6 30
19.09.2020 01:00:00 20,4 18,5 18 10 SSW 1016,6 -
19.09.2020 00:00:00 20,3 18,1 15 8 SW 1016,3 -
18.09.2020 23:00:00 20,5 18,4 22 12 SW 1016,2 20
18.09.2020 22:00:00 22,2 17,3 26 14 SW 1015,4 -
18.09.2020 21:00:00 22,4 17,3 26 14 SW 1014,4 -
18.09.2020 20:00:00 23,1 17,3 31 17 SW 1013,9 30
18.09.2020 19:00:00 23,9 16,9 39 21 SW 1013,2 -
18.09.2020 18:00:00 24,4 17,3 44 24 SW 1012,8 -
18.09.2020 17:00:00 25,1 16,5 42 23 SW 1012,5 30
18.09.2020 16:00:00 25,0 18,1 34 18 SSW 1012,1 -
18.09.2020 15:00:00 23,0 18,7 39 21 SW 1012,6 -
18.09.2020 14:00:00 25,1 17,6 39 21 SW 1011,9 30
18.09.2020 13:00:00 25,4 16,9 39 21 SW 1011,7 -
18.09.2020 12:00:00 23,7 19,4 4 2 S 1011,6 -
18.09.2020 11:00:00 23,6 18,7 18 10 S 1011,7 30
18.09.2020 10:00:00 22,7 19,1 9 5 SW 1011,6 -
18.09.2020 09:00:00 21,3 18,9 9 5 SW 1011,5 -
18.09.2020 08:00:00 21,2 18,8 9 5 SSW 1011,7 25
18.09.2020 07:00:00 20,6 19,1 5 3 SSW 1011,6 -
18.09.2020 06:00:00 21,2 19,1 8 4 SW 1011,5 -
18.09.2020 05:00:00 21,4 19,3 11 6 SW 1011,5 30
18.09.2020 04:00:00 21,1 18,3 24 13 SW 1011,7 -
18.09.2020 03:00:00 23,8 17,1 22 12 S 1011,6 -
18.09.2020 02:00:00 24,3 15,8 16 9 SSW 1011,8 30
18.09.2020 01:00:00 24,0 16,6 15 8 S 1011,8 -
18.09.2020 00:00:00 24,1 17,1 24 13 S 1012,2 -
17.09.2020 23:00:00 23,9 18,1 16 9 SSW 1012,4 30
17.09.2020 22:00:00 23,8 19,5 18 10 SSW 1012,2 -
17.09.2020 21:00:00 24,2 18,8 22 12 SW 1011,6 -
17.09.2020 20:00:00 25,2 18,6 26 14 SW 1011,4 20
17.09.2020 19:00:00 26,2 18,0 24 13 SW 1011,0 -
17.09.2020 18:00:00 27,9 16,8 28 15 SW 1010,6 -
17.09.2020 17:00:00 28,8 16,8 21 11 SW 1010,8 25
17.09.2020 16:00:00 29,8 17,3 15 8 SW 1011,2 -
17.09.2020 15:00:00 28,9 18,1 13 7 S 1012,0 -
17.09.2020 14:00:00 27,3 18,3 16 9 SW 1012,6 20
17.09.2020 13:00:00 26,9 18,3 13 7 SSW 1013,2 -
17.09.2020 12:00:00 26,2 18,2 13 7 W 1013,8 -
17.09.2020 11:00:00 24,5 18,4 15 8 SW 1013,7 20
17.09.2020 10:00:00 24,2 19,2 4 2 SSW 1013,5 -
17.09.2020 09:00:00 21,7 18,9 4 2 SE 1013,6 -
17.09.2020 08:00:00 21,2 18,6 4 2 E 1013,3 20
17.09.2020 07:00:00 21,1 18,7 5 3 E 1013,0 -
17.09.2020 06:00:00 21,4 18,8 8 4 E 1013,0 -
17.09.2020 05:00:00 21,6 19,0 8 4 E 1013,4 30
17.09.2020 04:00:00 22,3 19,2 4 2 E 1014,0 -
17.09.2020 03:00:00 22,9 19,7 8 4 SSW 1014,8 -
17.09.2020 02:00:00 23,4 19,8 11 6 SW 1014,9 30
17.09.2020 01:00:00 24,1 19,4 5 3 S 1015,0 -
17.09.2020 00:00:00 24,3 19,4 4 2 SE 1015,2 -
16.09.2020 23:00:00 24,4 19,2 5 3 SW 1015,0 30
16.09.2020 22:00:00 24,4 19,5 9 5 S 1015,0 -
16.09.2020 21:00:00 25,1 19,0 16 9 SW 1014,9 -
16.09.2020 20:00:00 26,5 19,6 22 12 SW 1014,5 30
16.09.2020 19:00:00 28,8 18,9 16 9 SW 1014,3 -
16.09.2020 18:00:00 29,5 16,8 16 9 WSW 1014,3 -
16.09.2020 17:00:00 29,8 15,9 9 5 WSW 1014,5 30
16.09.2020 16:00:00 29,9 15,5 8 4 W 1015,0 -
16.09.2020 15:00:00 29,4 15,5 9 5 W 1015,8 -
16.09.2020 14:00:00 28,3 15,9 8 4 WSW 1016,9 30
16.09.2020 13:00:00 27,6 16,2 8 4 SSW 1017,4 -
16.09.2020 12:00:00 25,3 16,4 5 3 W 1018,2 -
16.09.2020 11:00:00 24,8 17,5 4 2 NE 1018,2 25
16.09.2020 10:00:00 22,3 15,9 4 2 NNE 1018,4 -
16.09.2020 09:00:00 20,4 16,2 2 1 ENE 1018,5 -
16.09.2020 08:00:00 19,7 16,5 4 2 ENE 1018,1 30
16.09.2020 07:00:00 19,6 16,2 5 3 ESE 1018,0 -
16.09.2020 06:00:00 20,3 16,7 4 2 ESE 1018,3 -
16.09.2020 05:00:00 21,0 16,6 2 1 SSE 1018,7 30
16.09.2020 04:00:00 21,4 16,4 13 7 S 1019,1 -
16.09.2020 03:00:00 21,8 15,9 4 2 SSE 1019,1 -
16.09.2020 02:00:00 22,9 16,2 9 5 S 1019,3 30
16.09.2020 01:00:00 24,6 15,5 9 5 SSW 1019,5 -
16.09.2020 00:00:00 25,7 15,1 11 6 WSW 1019,2 -
15.09.2020 23:00:00 26,7 14,5 16 9 W 1019,0 30
15.09.2020 22:00:00 27,7 16,0 16 9 W 1018,4 -
15.09.2020 21:00:00 28,8 17,3 9 5 SW 1017,7 -
15.09.2020 20:00:00 30,4 13,3 8 4 SW 1017,6 30
15.09.2020 19:00:00 31,5 14,2 13 7 WSW 1017,7 -
15.09.2020 18:00:00 31,9 15,0 8 4 SSW 1017,8 -
15.09.2020 17:00:00 31,7 15,2 11 6 SW 1018,5 30
15.09.2020 16:00:00 30,8 15,6 11 6 W 1019,4 -
15.09.2020 15:00:00 30,0 16,7 13 7 WSW 1020,2 -
15.09.2020 14:00:00 28,8 17,0 13 7 W 1020,9 30
15.09.2020 13:00:00 28,2 17,4 8 4 WNW 1021,3 -
15.09.2020 12:00:00 26,9 18,0 4 2 N 1021,9 -
15.09.2020 11:00:00 26,6 17,9 8 4 E 1021,7 30
15.09.2020 10:00:00 24,7 17,4 2 1 E 1021,5 -
15.09.2020 09:00:00 22,6 16,8 2 1 ESE 1021,2 -
15.09.2020 08:00:00 22,2 16,2 0 0 N 1020,6 30
15.09.2020 07:00:00 21,3 16,3 4 2 E 1020,4 -
15.09.2020 06:00:00 20,7 16,1 8 4 SE 1020,5 -
15.09.2020 05:00:00 21,3 15,4 4 2 E 1020,6 30
15.09.2020 04:00:00 21,7 15,5 5 3 E 1020,7 -
15.09.2020 03:00:00 22,9 15,5 5 3 NNE 1021,1 -
15.09.2020 02:00:00 23,9 15,4 9 5 WNW 1021,1 -
15.09.2020 01:00:00 24,4 17,1 13 7 WSW 1021,1 -
15.09.2020 00:00:00 24,6 17,3 9 5 WSW 1020,8 -
14.09.2020 23:00:00 24,9 18,8 21 11 WSW 1020,1 30
14.09.2020 22:00:00 26,0 19,6 11 6 WSW 1019,2 -
14.09.2020 21:00:00 27,2 19,3 18 10 SW 1018,5 -
14.09.2020 20:00:00 29,0 19,2 18 10 SW 1017,8 30
14.09.2020 19:00:00 30,8 19,2 22 12 WSW 1017,2 -

tt = Température de l'air
td = dewpoint
ff = Vitesse du vent
dd = Direction du vent
ppp = reduced air pressure
vv = visibility

stations d'obs. à proximité